Location: Ernez
(36.4595°N, 29.8755°E)
Time: 09:01:16
(UTC+00:00)

Aureole 3 Rocket - Pass Details

Date: 13 November 2025
Orbit: 397 x 1691 km, 82.5° (Epoch: 04 December)

Event Time Altitude Azimuth Distance (km) Brightness Sun altitude
Rises 16:34:58 0° 199° (SSW) 2,587 6.6 -20.5°
Reaches altitude 10° 16:37:17 10° 207° (SSW) 1,592 5.6 -21.0°
Maximum altitude 16:40:26 40° 278° (W) 627 3.6 -21.6°
Enters shadow 16:42:04 21° 338° (NNW) 967 4.2 -22.0°
